Regional Weather Roundup
Issued by NWS

Home | Current Version | Previous Version | Text Only | Print | Product List | Glossary Off
Versions: 1 2 3 4 5 6 7 8 9 10 11 12 13 14 15 16 17 18 19 20 21 22 23 24 25 26 27 28 29 30 31 32 33 34 35 36 37 38 39 40 41 42 43 44 45 46 47 48 49 50

000
ASUS43 KMPX 162310
RWRMN
WEATHER ROUNDUP FOR MINNESOTA
NATIONAL WEATHER SERVICE TWIN CITIES/CHANHASSEN MN
600 PM CDT WED APR 16 2014


NOTE: "FAIR" INDICATES FEW OR NO CLOUDS BELOW 12,000 FEET WITH NO
SIGNIFICANT WEATHER AND/OR OBSTRUCTIONS TO VISIBILITY. N/A MEANS
CURRENT SKY AND/OR WEATHER CONDITIONS ARE NOT AVAILABLE.

MNZ060>063-068>070-170000-
   Twin Cities Metro

CITY           SKY/WX    TMP DP  RH WIND       PRES   REMARKS
TWIN CITIES    LGT SNOW  32  32 100 N16       29.89S FOG     WCI  21
ST PAUL        LGT RAIN  34  32  92 N9        29.91S FOG     WCI  27
CRYSTAL        SNOW      32  30  92 NE12G21   29.91R VSB 1/4 WCI  23
BLAINE         LGT SNOW  34  34 100 NE12G22   29.92R VSB 3/4 WCI  25
EDEN PRAIRIE   LGT RAIN  34  31  88 NE14      29.87R FOG     WCI  25
LAKEVILLE      RAIN      34  32  93 N7        29.87R WCI  28
SOUTH ST PAUL  LGT RAIN  37  35  95 N14       29.88S
LAKE ELMO      LGT SNOW  34  32  93 N13       29.90F WCI  25
$$
MNZ001>005-007-008-013>017-022>024-027-028-170000-
   Northwest Minnesota

CITY           SKY/WX    TMP DP  RH WIND       PRES   REMARKS
BEMIDJI        PTSUNNY   36  14  40 E13       30.13R
HALLOCK        CLOUDY    37   5  25 NE13      30.24R
ROSEAU         SUNNY     36   7  30 NE16      30.24R
WARROAD        SUNNY     36  10  35 NE12      30.24S
THIEF RVR FALL SUNNY     37   9  30 NE16G22   30.18R
CROOKSTON      SUNNY     39  12  33 NE10G21   30.18R
FOSSTON        MOSUNNY   39  12  33 NE14G23   30.14R
DETROIT LAKES  CLOUDY    34  21  60 E14G23    30.11R WCI  24
MOORHEAD       CLOUDY    37  25  60 NE17      30.14R
PARK RAPIDS    CLOUDY    30  21  69 NE17      30.11R WCI  18
$$
MNZ006-009>011-018-025>026-170000-
   North Central Minnesota

CITY           SKY/WX    TMP DP  RH WIND       PRES   REMARKS
BAUDETTE       SUNNY     37   6  27 E10       30.20S
FLAG ISLAND    SUNNY     34   9  35 N13       30.24S WCI  25
INTL FALLS     PTSUNNY   36   3  25 NE9       30.19S
WASKISH        MOSUNNY   39  10  30 NE10G17   30.16S
BIG FORK       CLOUDY    36  16  44 E12       30.16R
LONGVILLE      MIX PCPN  28  25  86 NE7       30.12R WCI  21
GRAND RAPIDS   CLOUDY    27  21  80 NE12G18   30.14R WCI  16
CRANE LAKE     CLOUDY    37   7  28 NE8       30.21S
ORR            CLOUDY    36   5  27 SE7       30.15R
COOK           CLOUDY    30  16  55 E8        30.18R WCI  23
$$
MNZ012-019>021-037-170000-
   Northeast Minnesota

CITY           SKY/WX    TMP DP  RH WIND       PRES   REMARKS
DULUTH         SNOW      27  22  81 E21G31    30.11R VSB 1/2 WCI  13
ELY            LGT SNOW  25  19  80 E9        30.20S WCI  15
HIBBING        LGT SNOW  28  21  75 NE13G23   30.16R WCI  17
EVELETH        LGT SNOW  27  21  80 NE12G17   30.17R WCI  16
DULUTH HARBOR  SNOW      28  27  93 NE26G33   30.15R VSB 1/2 WCI  13
TWO HARBORS    SNOW      27  21  80 NE14G29   30.14S VSB 1/2 WCI  15
SILVER BAY     LGT SNOW  25  25 100 NE16      30.18R VSB 3/4 WCI  12
GRAND MARAIS     N/A     27  23  85 NE12G18   30.28S WCI  17
G MARAIS ARPRT LGT SNOW  21  16  79 NE8       30.22R VSB 1   WCI  12
$$
MNZ029>031-032-039>041-046>048-054>057-064-170000-
   West Central Minnesota

CITY           SKY/WX    TMP DP  RH WIND       PRES   REMARKS
FERGUS FALLS   CLOUDY    32  19  59 NE16G25   30.07R WCI  21
WHEATON        CLOUDY    34  28  80 N18       30.10R WCI  23
MORRIS         CLOUDY    32  27  80 N22       30.02R WCI  19
ALEXANDRIA     CLOUDY    29  23  78 NE18G30   30.02R WCI  16
ELBOW LAKE     CLOUDY    31  24  76 NE13G23   30.05R WCI  21
WADENA         CLOUDY    28  21  74 NE14G22   30.07R WCI  17
GLENWOOD       LGT SNOW  28  27  93 NE22      29.99R WCI  15
APPLETON       CLOUDY    34  27  75 N23       30.00R WCI  22
BENSON         MIX PCPN  32  27  80 NE14G21   29.99R WCI  22
ORTONVILLE     CLOUDY    30  25  80 N24       30.03R HAZE    WCI  16
MADISON        MIX PCPN  34  30  86 N20G25    29.99R WCI  22
WILLMAR        LGT SNOW  30  27  86 NE20G28   29.94R WCI  18
$$
MNZ033>034-036-042>043-049>051-058-059-170000-
   Central Minnesota

CITY           SKY/WX    TMP DP  RH WIND       PRES   REMARKS
ST CLOUD       SNOW      30  26  85 NE14G21   29.97R VSB 1/2 WCI  19
SAUK CENTRE    LGT SNOW  28  25  89 N16G23    29.99R WCI  16
PAYNESVILLE    LGT SNOW  29  27  93 NE14G22   29.95R WCI  18
AITKIN         LGT SNOW  30  25  80 NE14G20   30.06S WCI  20
PINE RIVER     LGT SNOW  28  23  80 NE13G21   30.13R WCI  18
BRAINERD       LGT SNOW  32  24  72 NE21G26   30.07R WCI  20
STAPLES        CLOUDY    28  23  80 NE13G18   30.07R WCI  18
LONG PRAIRIE   CLOUDY    28  25  86 N17G24    30.01R WCI  16
LITTLE FALLS   LGT SNOW  28  25  86 NE9G20    30.02R WCI  20
LITCHFIELD     SNOW      30  30 100 NE17G24   29.92R VSB 1/2 WCI  18
BUFFALO        SNOW      30  28  92 N14G22    29.94R VSB 1/2 WCI  20
MAPLE LAKE     SNOW      31  30  96 NE14G23   29.94R VSB 1/2 WCI  21
$$
MNZ037-044-045-052-053-170000-
   East Central Minnesota

CITY           SKY/WX    TMP DP  RH WIND       PRES   REMARKS
PRINCETON      SNOW      30  28  93 N14G22    29.97S VSB 1/4 WCI  20
MORA           SNOW      30  27  86 NE10G16   30.03R VSB 1/2 WCI  21
CAMBRIDGE      SNOW      30  25  80 N12G17    29.96S VSB 1/4 WCI  21
RUSH CITY      MIX PCPN  30  28  92 NE15      30.01R WCI  19
MOOSE LAKE     LGT SNOW  28  25  86 NE14G21   30.06S WCI  17
HINCKLEY       LGT SNOW  30  28  93 NE10G23   30.03R VSB 3/4 WCI  21
CLOQUET        LGT SNOW  27  25  93 NE18G25   30.10R VSB 3/4 WCI  13
MCGREGOR       CLOUDY    28  27  93 NE8G18    30.09R WCI  20
$$
MNZ071>073-080-081-089-090-097-098-170000-
   Southwest Minnesota

CITY           SKY/WX    TMP DP  RH WIND       PRES   REMARKS
MONTEVIDEO     LGT SNOW  30  28  93 NE21G26   29.96R WCI  17
GRANITE FALLS  LGT SNOW  30  27  90 N17       29.94R VSB 3/4 WCI  18
CANBY          LGT SNOW  30  28  93 N15G22    29.99R WCI  19
MARSHALL       CLOUDY    28  25  86 N18       29.91R VSB 1   WCI  16
REDWOOD FALLS  SNOW      31  28  89 N15G25    29.89R VSB 1/2 WCI  20
OLIVIA         SNOW      30  28  93 NE14G20   29.89R VSB 1/2 WCI  20
PIPESTONE        N/A    N/A N/A N/A NE23G30   29.86R
WINDOM         LGT RAIN  36  34  93 N18       29.81R
WORTHINGTON    CLOUDY    34  28  80 N18G26    29.81R WCI  23
JACKSON        LGT RAIN  39  36  87 N21       29.79R
TRACY          SNOW      31  29  95 N18G25    29.88R VSB 1/4 WCI  19
SLAYTON        CLOUDY    29  29 100 N22       29.84R WCI  16
$$
MNZ065>067-074>077-082>085-091>093-170000-
   South Central Minnesota

CITY           SKY/WX    TMP DP  RH WIND       PRES   REMARKS
MANKATO        CLOUDY    36  34  93 NE21      29.82R
NEW ULM        LGT RAIN  34  34 100 NE16G22   29.85R WCI  23
ST JAMES       LGT RAIN  37  36  93 N18G24    29.82R
FAIRMONT       CLOUDY    41  36  81 N18G24    29.78R
GLENCOE        LGT SNOW  33  30  90 N10G16    29.88R WCI  24
FARIBAULT      RAIN      39  34  81 N9        29.83R
OWATONNA       LGT RAIN  48  39  71 S13G24    29.79R
WASECA         RAIN      50  39  66 NW10      29.80R
ALBERT LEA     CLOUDY    55  34  44 S6        29.76R
$$
MNZ078>079-086>088-094>096-170000-
   Southeast Minnesota

CITY           SKY/WX    TMP DP  RH WIND       PRES   REMARKS
ROCHESTER      CLOUDY    51  33  50 S18G29    29.80F
RED WING       DRIZZLE   52  36  54 SE14      29.82F
STANTON        LGT RAIN  39  35  86 N15       29.81R
DODGE CENTER   RAIN      52  37  58 S23G30    29.81R
WINONA         CLOUDY    54  30  40 S10G18    29.87F
AUSTIN         DRIZZLE   52  36  54 S12G23    29.79R
PRESTON        CLOUDY    52  32  46 S21G29    29.82F
$$
ABBREVIATIONS USED IN REMARKS
   TC - TEMPERATURES IN CELSIUS
  WCI - WIND CHILL INDEX
   HX - HEAT INDEX
  VSB - VISIBILITY
$$


USA.gov is the U.S. government's official web portal to all federal, state and local government web resources and services.